This is the latest recevied weather packets stored in our database for station/object K7YVO. If no packets are shown the sender has not sent any weather packets the latest 10 day(s).
| Time | Temp. | Humidity | Pressure | Rain* | Wind** | Luminosity | Snow |
|---|---|---|---|---|---|---|---|
| 1777948303 | 22.22° C | 61% | 1012.9 hPa | 0 mm | - | 35 W/m² | - |
| 1777948000 | 22.22° C | 60% | 1013 hPa | 0 mm | - | 41 W/m² | - |
| 1777947697 | 22.22° C | 60% | 1012.9 hPa | 0 mm | - | 48 W/m² | - |
| 1777947393 | 22.22° C | 60% | 1012.9 hPa | 0 mm | - | 55 W/m² | - |
| 1777947090 | 22.22° C | 61% | 1012.8 hPa | 0 mm | - | 62 W/m² | - |
| 1777946786 | 22.22° C | 60% | 1012.8 hPa | 0 mm | - | 71 W/m² | - |
| 1777946482 | 22.22° C | 59% | 1013 hPa | 0 mm | - | 71 W/m² | - |
| 1777946179 | 22.22° C | 59% | 1012.9 hPa | 0 mm | - | 73 W/m² | - |
| 1777945876 | 22.22° C | 59% | 1012.8 hPa | 0 mm | - | 83 W/m² | - |
| 1777945573 | 22.22° C | 60% | 1012.9 hPa | 0 mm | - | 108 W/m² | - |
| 1777945270 | 22.78° C | 58% | 1013 hPa | 0 mm | - | 117 W/m² | - |
| 1777944967 | 22.78° C | 57% | 1013.1 hPa | 0 mm | - | 106 W/m² | - |
| 1777944664 | 22.78° C | 58% | 1013 hPa | 0 mm | - | 104 W/m² | - |
| 1777944362 | 22.78° C | 58% | 1013.1 hPa | 0 mm | - | 112 W/m² | - |
| 1777944059 | 23.33° C | 56% | 1013.2 hPa | 0 mm | - | 116 W/m² | - |
| 1777943754 | 23.33° C | 57% | 1013.3 hPa | 0 mm | - | 130 W/m² | - |
| 1777943452 | 23.33° C | 56% | 1013.1 hPa | 0 mm | - | 202 W/m² | - |
| 1777943147 | 22.78° C | 57% | 1013.3 hPa | 0 mm | - | 211 W/m² | - |
| 1777942844 | 22.78° C | 58% | 1013 hPa | 0 mm | - | 187 W/m² | - |
| 1777942540 | 23.33° C | 57% | 1013.2 hPa | 0 mm | - | 217 W/m² | - |
| 1777942238 | 22.78° C | 57% | 1013.1 hPa | 0 mm | - | 260 W/m² | - |
| 1777941935 | 23.33° C | 57% | 1013.2 hPa | 0 mm | - | 267 W/m² | - |
| 1777941632 | 23.89° C | 55% | 1013.1 hPa | 0 mm | - | 285 W/m² | - |
| 1777941329 | 23.89° C | 55% | 1013.3 hPa | 0 mm | - | 304 W/m² | - |
| 1777941026 | 23.89° C | 55% | 1013.5 hPa | 0 mm | - | 318 W/m² | - |
* Rain latest hour (hover to see other rain measurements)
** Current wind speed in m/s (hover to see current wind gust speed)